Retour au catalogue

SL-8 DEB

ActifLEO
NORAD 21400·DEBRIS·🇷🇺 Russia

Lancé Feb 12, 1991 depuis Plesetsk Cosmodrome

Loading…

Prochains Passages (prochaines 24 heures)

TLE

FraisSource: Space-Track

Époque: Sep 14, 2026, 15:07 UTC

1 21400U 91009BP  26257.63027381 -.00000007  00000-0  62019-4 0  9998
2 21400  73.9686 200.5089 0184269 350.9535 183.1886 12.36848536530517

Suivez SL-8 DEB en temps réel avec AllMySat

Download on the App Store